Regional Weather Roundup
Issued by NWS

Home | Current Version | Previous Version | Graphics & Text | Print | Product List | Glossary Off
Versions: 1 2 3 4 5 6 7 8 9 10 11 12 13 14 15 16 17 18 19 20 21 22 23 24 25 26 27 28 29 30 31 32 33 34 35 36 37 38 39 40 41 42 43 44 45 46 47 48 49 50

000
ASUS43 KFSD 170102
RWRSD

WEATHER ROUNDUP FOR SOUTH DAKOTA
NATIONAL WEATHER SERVICE SIOUX FALLS SD
800 PM CDT WED AUG 16 2017

NOTE: "FAIR" INDICATES FEW OR NO CLOUDS BELOW 12,000 FEET WITH NO
SIGNIFICANT WEATHER AND/OR OBSTRUCTIONS TO VISIBILITY.


SDZ001>005-009-010-012>017-170200-
NORTHWEST AND NORTH CENTRAL SOUTH DAKOTA

CITY           SKY/WX    TMP DP  RH WIND       PRES   REMARKS
BUFFALO          N/A     79  48  33 E5        29.89S
MOBRIDGE       CLOUDY    73  61  65 N7        29.86F
$$

SDZ012>016-024>037-041>051-057-063-072>074-170200-
SOUTHWEST AND SOUTH CENTRAL SOUTH DAKOTA

CITY           SKY/WX    TMP DP  RH WIND       PRES   REMARKS
RAPID CTY ARPT CLEAR     77  48  35 N3        29.98R
PIERRE         CLOUDY    71  56  58 NW12      29.88S
CUSTER         CLEAR     63  45  51 E5        30.12S
ELLSWORTH AFB  CLEAR     77  47  34 N5        29.98R
PHILIP         CLEAR     77  47  34 NE10      29.93S
PINE RIDGE     CLEAR     75  48  38 N8        30.00S
SPEARFISH      FAIR      75  45  33 E5        30.02S
WINNER         FAIR      69  62  78 NW10      29.91R
$$

SDZ004>011-016>023-039-040-170200-
NORTHEAST SOUTH DAKOTA

CITY           SKY/WX    TMP DP  RH WIND       PRES   REMARKS
ABERDEEN       CLOUDY    67  66  97 N12       29.81S
WATERTOWN      LGT RAIN  65  65 100 N13       29.74F
BROOKINGS      RAIN      65  64  97 N16       29.71F
SISSETON         N/A     68  67  96 N12       29.76S
$$

SDZ017-020-022-023-036>040-048>070-170200-
SOUTHEAST SOUTH DAKOTA

CITY           SKY/WX    TMP DP  RH WIND       PRES   REMARKS
SIOUX FALLS    CLOUDY    67  67 100 NW7       29.72S
HURON          CLOUDY    67  66  97 NW14      29.78S
CHAMBERLAIN    CLOUDY    69  65  89 W9        29.86S
MITCHELL       LGT RAIN  67  65  93 NW13      29.78S
$$

ABBREVIATIONS USED IN REMARKS
   TC - TEMPERATURE IN CELSIUS
  WCI - WIND CHILL INDEX
   HX - HEAT INDEX
  VSB - VISIBILITY





USA.gov is the U.S. government's official web portal to all federal, state and local government web resources and services.